615VGS Twitter

615vgs @ReigateBeat @metpoliceuk @SurreyFRS @LondonFire @RoyalAirForceUK Many thanks for your support with our LIVEX. Much appreciated.
615vgs 615 Boys (and wag!) good to go! http://t.co/yeznJBWKnx
615vgs We're looking for a make-up artist to help us with a Post Crash Management Exercise we're holding at Kenley on... http://t.co/NRbt5U6Tfz
615vgs Slightly different from your average day at RAF Kenley... Many thanks to all staff and colleagues from partner agencies that attended.

615VGS Facebook

Staff Login


Staff who require login details should contact the MCO.

Join 615 VGS

 

 

615 VGS Partner

bigatmo

Course Photos 2013

KY Aviation Wx

[source: ADDS]
METAR
EGKB 281620Z 07007KT 5000 HZ NSC 09/08 Q1003 =
TAF
TAF EGKB 281402Z 2815/2821 08011KT 4500 HZ SCT010 BECMG 2815/2818 9999 NSW PROB30 2818/2821 4000 HZ =
SR / SS: 07:38 / 15:57 UTC (Sunrise/Sunset 2014-11-28)